This demonstration page uses our WeatherBlox Daily Observations layout. Learn more.

Left ArrowRight Arrow

Hourly Observations for February 27, 2017

Temp ( °F °C ) Dew Point ( °F °C ) Humidity (%) Winds ( mph kmh ) Pressure ( in mb ) Visibility ( mi km ) Precip ( " mm )
12:53 am 00:53 Cloudy 40 4.4 24 -4.4 53 53 ESE 3 6 30.21 1023 10 16 N/A
1:53 am 01:53 Cloudy 39 3.9 25 -3.9 57 57 N N/A 30.21 1023 10 16 N/A
2:53 am 02:53 Cloudy 40 4.4 27 -2.8 60 60 N N/A 30.22 1023 10 16 N/A
3:53 am 03:53 Cloudy 40 4.4 26 -3.3 58 58 N N/A 30.23 1024 10 16 N/A
4:53 am 04:53 Cloudy 39 3.9 30 -1.1 70 70 N N/A 30.24 1024 10 16 N/A
5:53 am 05:53 Cloudy 40 4.4 28 -2.2 63 63 N N/A 30.25 1025 10 16 N/A
6:53 am 06:53 Cloudy with Light Rain 41 5 29 -1.7 62 62 N N/A 30.26 1025 10 16 N/A
7:53 am 07:53 Cloudy 44 6.7 34 1.1 68 68 N N/A 30.27 1025 10 16 N/A
8:07 am 08:07 Cloudy 44 6.7 36 2.2 73 73 VRB 3 6 30.27 1025 10 16 N/A
8:31 am 08:31 Cloudy 44 6.7 37 2.8 76 76 S 3 6 30.27 1025 10 16 N/A
8:53 am 08:53 Cloudy 45 7.2 37 2.8 74 74 SSE 6 9 30.29 1026 10 16 N/A
9:18 am 09:18 Cloudy 45 7.2 38 3.3 77 77 VRB 6 9 30.27 1025 10 16 N/A
9:25 am 09:25 Cloudy 45 7.2 39 3.9 80 80 S 5 7 30.27 1025 10 16 N/A
9:53 am 09:53 Mostly Cloudy 45 7.2 39 3.9 80 80 VRB 7 11 30.28 1025 10 16 N/A
10:37 am 10:37 Cloudy 47 8.3 40 4.4 77 77 VRB 3 6 30.27 1025 10 16 N/A
10:53 am 10:53 Mostly Cloudy 47 8.3 39 3.9 74 74 VRB 7 11 30.28 1026 10 16 N/A
11:00 am 11:00 Mostly Cloudy 47 8.3 40 4.4 77 77 VRB 5 7 30.27 1025 10 16 N/A
11:12 am 11:12 Mostly Cloudy 47 8.3 40 4.4 77 77 VRB 5 7 30.27 1025 10 16 N/A
11:53 am 11:53 Cloudy 47 8.3 40 4.4 77 77 VRB 5 7 30.28 1025 10 16 N/A
12:53 pm 12:53 Cloudy with Light Rain 45 7.2 42 5.6 90 90 VRB 5 7 30.28 1025 6 10 N/A
1:17 pm 13:17 Cloudy with Light Rain 44 6.7 42 5.6 93 93 VRB 5 7 30.27 1025 3 4 0.01 0.25
1:32 pm 13:32 Cloudy with Light Rain 44 6.7 43 6.1 96 96 VRB 3 6 30.27 1025 4 6 0.02 0.51
1:53 pm 13:53 Cloudy with Light Rain 45 7.2 44 6.7 97 97 VRB 3 6 30.25 1025 5 8 0.02 0.51
2:33 pm 14:33 Cloudy 47 8.3 45 7.2 93 93 N N/A 30.24 1024 10 16 N/A
2:53 pm 14:53 Cloudy 47 8.3 44 6.7 90 90 N N/A 30.23 1024 10 16 N/A
3:53 pm 15:53 Cloudy 48 8.9 45 7.2 89 89 SE 3 6 30.22 1023 10 16 N/A
4:00 pm 16:00 Cloudy 48 8.9 45 7.2 89 89 VRB 3 6 30.21 1023 10 16 N/A
4:53 pm 16:53 Cloudy 49 9.4 45 7.2 86 86 N N/A 30.22 1024 10 16 N/A
5:53 pm 17:53 Mostly Cloudy 49 9.4 44 6.7 83 83 SSE 6 9 30.21 1023 10 16 N/A
6:53 pm 18:53 Cloudy 46 7.8 43 6.1 89 89 ESE 5 7 30.21 1023 10 16 N/A
7:53 pm 19:53 Partly Cloudy 42 5.6 41 5 96 96 ESE 3 6 30.22 1024 10 16 N/A
8:53 pm 20:53 Mostly Cloudy 41 5 41 5 100 100 E 3 6 30.22 1024 9 14 N/A
9:53 pm 21:53 Mostly Clear 40 4.4 39 3.9 97 97 N N/A 30.22 1023 10 16 N/A
10:53 pm 22:53 Clear 40 4.4 39 3.9 97 97 E 3 6 30.22 1024 10 16 N/A
11:53 pm 23:53 Clear 37 2.8 37 2.8 100 100 ESE 3 6 30.21 1023 9 14 N/A

Powered by AerisWeather